Regional Weather Roundup
Issued by NWS

Home | Current Version | Previous Version | Text Only | Print | Product List | Glossary Off
Versions: 1 2 3 4 5 6 7 8 9 10 11 12 13 14 15 16 17 18 19 20 21 22 23 24 25 26 27 28 29 30 31 32 33 34 35 36 37 38 39 40 41 42 43 44 45 46 47 48 49 50

000
ASUS43 KOAX 242310
RWRNE

WEATHER ROUNDUP FOR NEBRASKA
NATIONAL WEATHER SERVICE OMAHA NE
600 PM CDT TUE MAY 24 2016

NOTES: SATELLITE DATA IS BEING USED TO AUGMENT CLOUD COVER ABOVE
       12000 FEET.
       "FAIR" INDICATES FEW OR NO CLOUDS BELOW 12,000 FEET WITH NO
       SIGNIFICANT WEATHER AND/OR OBSTRUCTIONS TO VISIBILITY.

  * THESE STATIONS DO NOT REPORT WEATHER SUCH AS RAIN...SNOW OR FOG.

NEZ001>004-019>022-054>056-250000-
NEBRASKA PANHANDLE

CITY           SKY/WX    TMP DP  RH WIND       PRES   REMARKS
SCOTTSBLUFF    CLOUDY    73  47  39 SE18      29.79F
ALLIANCE       CLOUDY    73  48  41 S22G29    29.81F
CHADRON        MOSUNNY   79  46  31 SE17G24   29.75F
KIMBALL        TSTM      67  49  53 SE8       29.89R
SIDNEY         CLOUDY    72  52  49 S16       29.85F
$$

NEZ057>060-069>072-079>082-250000-
SOUTHWEST NEBRASKA

CITY           SKY/WX    TMP DP  RH WIND       PRES   REMARKS
NORTH PLATTE   MOSUNNY   75  58  55 SE13      29.83F
IMPERIAL       MOSUNNY   75  59  57 S16       29.82F
LEXINGTON      PTSUNNY   75  59  57 SE13      29.85S
MCCOOK         PTSUNNY   75  60  59 SE15G23   29.82F
OGALLALA       MOSUNNY   74  55  49 SE13G20   29.83F
$$

NEZ005>010-023>029-035>040-094-250000-
NORTH CENTRAL NEBRASKA

CITY           SKY/WX    TMP DP  RH WIND       PRES   REMARKS
VALENTINE      SUNNY     81  45  28 SE12      29.81F
AINSWORTH      SUNNY     80  47  31 SE12G18   29.83F
BROKEN BOW     SUNNY     80  53  39 SE12      29.84F
O`NEILL        SUNNY     82  47  28 E7        29.84F
ORD            SUNNY     81  52  36 SE10      29.83F
THEDFORD       SUNNY     82  48  31 S16       29.85F
$$

NEZ041-046>049-061>064-073>077-083>087-250000-
SOUTH CENTRAL NEBRASKA

CITY           SKY/WX    TMP DP  RH WIND       PRES   REMARKS
GRAND ISLAND   MOSUNNY   79  60  52 SE8       29.86F
AURORA         SUNNY     80  57  45 S7        29.86F
HASTINGS       MOSUNNY   79  59  50 S9        29.86F
HEBRON         SUNNY     82  58  43 S12       29.85F
HOLDREGE       CLOUDY    77  55  46 S15G21    29.85F
KEARNEY *      MOSUNNY   79  57  47 S17       29.86S
YORK           SUNNY     81  59  47 SE9       29.86F
$$

NEZ011>018-030>034-042>045-250000-
NORTHEAST NEBRASKA

CITY           SKY/WX    TMP DP  RH WIND       PRES   REMARKS
NORFOLK        SUNNY     83  55  38 SE12      29.83F
ALBION         SUNNY     80  53  38 S10G18    29.85F
BLAIR          SUNNY     80  61  51 E7        29.88S
FREMONT        SUNNY     80  59  47 SE8       29.87F
TEKAMAH        MOSUNNY   82  61  48 SE14      29.85F
WAYNE          SUNNY     82  57  42 E12G17    29.85S
$$

NEZ050>053-065>068-078-088>093-250000-
SOUTHEAST NEBRASKA

CITY           SKY/WX    TMP DP  RH WIND       PRES   REMARKS
LINCOLN        SUNNY     81  59  47 S6        29.87F
OMAHA EPPLEY   MOSUNNY   82  59  45 S7        29.86F
BEATRICE       SUNNY     81  61  51 S6        29.86F
FALLS CITY     SUNNY     83  61  47 SW8       29.86F
NEBRASKA CITY  SUNNY     79  60  51 E7        29.88S
PLATTSMOUTH    SUNNY     82  62  51 SE6       29.88F
$$

NEZ044-045-051>053-067-250000-
OMAHA AREA

CITY           SKY/WX    TMP DP  RH WIND       PRES   REMARKS
OMAHA EPPLEY   MOSUNNY   82  59  45 S7        29.86F
BLAIR          SUNNY     80  61  51 E7        29.88S
FREMONT        SUNNY     80  59  47 SE8       29.87F
MILLARD        SUNNY     82  59  46 SE6       29.87S
OFFUTT AFB     SUNNY     81  60  48 SE5       29.86F
PLATTSMOUTH    SUNNY     82  62  51 SE6       29.88F
WAHOO          FAIR      81  58  46 SE9       29.87S
$$



USA.gov is the U.S. government's official web portal to all federal, state and local government web resources and services.